SBI1489 UUWW-UWLL

Flight info

Callsign SBI1489
Flight time 1h 14m
Altitude 31000
Route KOGOM L94 EKPIR M864 IBROT T784 OTKOL T787 OKSUD T778 TERDI
Aircraft A20N/M-SDE3FGHIJ1RWYZ/LB1

Departure

Time 2026-04-30 19:31
Airport Vnukovo International Airport (UUWW)

Arrival

Time 2026-04-30 20:45
Airport Ulyanovsk Baratayevka Airport (UWLL)
Time Latitude Longitude Altitude Speed Heading
2026-04-30 18:00 55.60149 37.28149 655 ft 0 kts 37°
2026-04-30 18:07 55.60141 37.28238 656 ft 764 kts 37°
2026-04-30 18:09 55.60156 37.28257 655 ft 0 kts 320°
2026-04-30 19:01 55.60156 37.28258 658 ft 2 kts 320°
2026-04-30 19:02 55.60152 37.28264 660 ft 0 kts 10°
2026-04-30 19:05 55.60151 37.28264 660 ft 2 kts
2026-04-30 19:05 55.60124 37.28293 659 ft 2 kts 304°
2026-04-30 19:06 55.60109 37.28342 656 ft 2 kts 271°
2026-04-30 19:06 55.60109 37.28371 659 ft 2 kts 264°
2026-04-30 19:06 55.60115 37.28429 659 ft 2 kts 256°
2026-04-30 19:07 55.60124 37.28479 657 ft 1 kts 240°
2026-04-30 19:07 55.60126 37.28485 657 ft 0 kts 234°
2026-04-30 19:14 55.60126 37.28484 655 ft 0 kts 234°
2026-04-30 19:14 55.60117 37.28463 655 ft 4 kts 232°
2026-04-30 19:14 55.60094 37.28407 655 ft 7 kts 240°
2026-04-30 19:15 55.60082 37.28308 659 ft 10 kts 261°
2026-04-30 19:15 55.60074 37.28135 655 ft 2 kts 272°
2026-04-30 19:15 55.60075 37.28091 655 ft 5 kts 272°
2026-04-30 19:16 55.60088 37.28014 657 ft 8 kts 291°
2026-04-30 19:16 55.60099 37.27972 657 ft 1 kts 295°
2026-04-30 19:16 55.60106 37.27880 655 ft 7 kts 251°
2026-04-30 19:17 55.60080 37.27824 657 ft 0 kts 225°
2026-04-30 19:18 55.60075 37.27817 657 ft 2 kts 225°
2026-04-30 19:18 55.60043 37.27762 659 ft 6 kts 218°
2026-04-30 19:18 55.59996 37.27710 655 ft 9 kts 217°
2026-04-30 19:19 55.59954 37.27605 659 ft 12 kts 239°
2026-04-30 19:19 55.59897 37.27483 660 ft 14 kts 229°
2026-04-30 19:19 55.59738 37.27201 658 ft 18 kts 225°
2026-04-30 19:20 55.59650 37.27032 661 ft 19 kts 230°
2026-04-30 19:20 55.59639 37.27009 660 ft 0 kts 228°
2026-04-30 19:21 55.59632 37.26997 657 ft 3 kts 227°
2026-04-30 19:21 55.59585 37.26907 656 ft 8 kts 227°
2026-04-30 19:22 55.59547 37.26805 657 ft 7 kts 227°
2026-04-30 19:22 55.59504 37.26660 658 ft 0 kts 249°
2026-04-30 19:23 55.59490 37.26595 658 ft 10 kts 249°
2026-04-30 19:24 55.59411 37.26244 660 ft 3 kts 248°
2026-04-30 19:24 55.59403 37.26211 659 ft 9 kts 247°
2026-04-30 19:24 55.59352 37.25994 658 ft 0 kts 247°
2026-04-30 19:25 55.59264 37.25581 658 ft 25 kts 249°
2026-04-30 19:26 55.59105 37.24885 658 ft 36 kts 249°
2026-04-30 19:26 55.58981 37.24358 655 ft 24 kts 243°
2026-04-30 19:26 55.58897 37.24065 659 ft 30 kts 243°
2026-04-30 19:27 55.58814 37.23810 655 ft 14 kts 221°
2026-04-30 19:27 55.58768 37.23803 653 ft 0 kts 156°
2026-04-30 19:30 55.58688 37.24054 647 ft 0 kts 66°
2026-04-30 19:30 55.58946 37.25200 658 ft 122 kts 68°
2026-04-30 19:31 55.59804 37.28966 1061 ft 199 kts 67°
2026-04-30 19:31 55.60354 37.31373 1632 ft 219 kts 68°
2026-04-30 19:31 55.61453 37.36334 3727 ft 219 kts 68°
2026-04-30 19:32 55.61883 37.39007 4446 ft 236 kts 86°
2026-04-30 19:32 55.61524 37.41853 5267 ft 244 kts 119°
2026-04-30 19:32 55.60472 37.44234 6219 ft 248 kts 133°
2026-04-30 19:32 55.59215 37.46364 7093 ft 252 kts 136°
2026-04-30 19:33 55.57937 37.48640 7556 ft 275 kts 125°
2026-04-30 19:33 55.57129 37.51889 7643 ft 302 kts 98°
2026-04-30 19:33 55.56995 37.55667 7637 ft 306 kts 87°
2026-04-30 19:33 55.57064 37.59283 7624 ft 283 kts 87°
2026-04-30 19:34 55.57107 37.62643 7527 ft 265 kts 87°
2026-04-30 19:34 55.57141 37.65848 7274 ft 254 kts 87°
2026-04-30 19:34 55.58281 37.71037 7019 ft 221 kts 39°
2026-04-30 19:35 55.59497 37.72810 6992 ft 230 kts 39°
2026-04-30 19:35 55.60641 37.74752 6995 ft 228 kts 46°
2026-04-30 19:35 55.61640 37.76933 6998 ft 229 kts 52°
2026-04-30 19:35 55.62530 37.79279 6995 ft 229 kts 56°
2026-04-30 19:36 55.63354 37.81692 6996 ft 230 kts 58°
2026-04-30 19:36 55.64154 37.84140 6997 ft 230 kts 58°
2026-04-30 19:36 55.64683 37.89583 7002 ft 235 kts 102°
2026-04-30 19:37 55.64305 37.92401 6997 ft 235 kts 102°
2026-04-30 19:37 55.63934 37.95209 6999 ft 235 kts 101°
2026-04-30 19:37 55.63569 37.98030 6995 ft 234 kts 101°
2026-04-30 19:37 55.63207 38.00857 7081 ft 237 kts 101°
2026-04-30 19:38 55.62842 38.03724 7598 ft 240 kts 101°
2026-04-30 19:38 55.62476 38.06591 8642 ft 237 kts 101°
2026-04-30 19:38 55.62110 38.09461 9567 ft 243 kts 101°
2026-04-30 19:38 55.61728 38.12458 10233 ft 258 kts 102°
2026-04-30 19:39 55.61315 38.15690 10634 ft 279 kts 102°
2026-04-30 19:39 55.60888 38.19042 10768 ft 283 kts 102°
2026-04-30 19:39 55.60456 38.22440 10842 ft 282 kts 102°
2026-04-30 19:39 55.60024 38.25836 10926 ft 283 kts 102°
2026-04-30 19:40 55.59590 38.29236 11005 ft 283 kts 102°
2026-04-30 19:40 55.59156 38.32632 11081 ft 284 kts 102°
2026-04-30 19:40 55.58719 38.36032 11160 ft 284 kts 102°
2026-04-30 19:40 55.58283 38.39424 11402 ft 283 kts 102°
2026-04-30 19:41 55.57869 38.42845 11795 ft 286 kts 95°
2026-04-30 19:41 55.58020 38.46316 12199 ft 285 kts 72°
2026-04-30 19:41 55.58887 38.49448 12608 ft 286 kts 58°
2026-04-30 19:42 55.61987 38.58677 13865 ft 292 kts 58°
2026-04-30 19:42 55.63007 38.61753 14257 ft 294 kts 58°
2026-04-30 19:42 55.64042 38.64882 14638 ft 295 kts 59°
2026-04-30 19:43 55.65074 38.68006 15015 ft 297 kts 59°
2026-04-30 19:43 55.66128 38.71199 15404 ft 298 kts 59°
2026-04-30 19:43 55.67165 38.74345 15783 ft 300 kts 59°
2026-04-30 19:44 55.69295 38.80819 16604 ft 304 kts 59°
2026-04-30 19:44 55.70361 38.84068 17015 ft 306 kts 59°
2026-04-30 19:44 55.71433 38.87336 17433 ft 307 kts 59°
2026-04-30 19:44 55.72510 38.90624 17850 ft 309 kts 59°
2026-04-30 19:45 55.73699 38.93797 18275 ft 310 kts 50°
2026-04-30 19:45 55.75139 38.96601 18678 ft 312 kts 45°
2026-04-30 19:45 55.76641 38.99395 19048 ft 313 kts 46°
2026-04-30 19:45 55.78143 39.02218 19418 ft 315 kts 46°
2026-04-30 19:46 55.79652 39.05066 19810 ft 317 kts 46°
2026-04-30 19:46 55.81166 39.07928 20197 ft 318 kts 46°
2026-04-30 19:46 55.82685 39.10803 20585 ft 320 kts 46°
2026-04-30 19:46 55.84192 39.13752 20988 ft 322 kts 51°
2026-04-30 19:47 55.85462 39.17050 21398 ft 324 kts 60°
2026-04-30 19:47 55.86149 39.19430 21669 ft 326 kts 64°
2026-04-30 19:47 55.87491 39.24305 22223 ft 330 kts 63°
2026-04-30 19:47 55.88516 39.27972 22641 ft 332 kts 63°
2026-04-30 19:48 55.91683 39.39322 23937 ft 340 kts 63°
2026-04-30 19:49 55.95524 39.53208 25265 ft 347 kts 63°
2026-04-30 19:50 55.97234 39.59417 25873 ft 350 kts 63°
2026-04-30 19:50 56.00158 39.69987 26925 ft 355 kts 62°
2026-04-30 19:50 56.01317 39.73900 27326 ft 357 kts 61°
2026-04-30 19:51 56.02310 39.77978 27731 ft 361 kts 71°
2026-04-30 19:51 56.02868 39.82388 27962 ft 366 kts 82°
2026-04-30 19:51 56.03050 39.91501 28001 ft 366 kts 87°
2026-04-30 19:52 56.03110 39.96049 28000 ft 367 kts 87°
2026-04-30 19:52 56.03173 40.00564 27999 ft 367 kts 87°
2026-04-30 19:52 56.03235 40.05122 27993 ft 367 kts 87°
2026-04-30 19:52 56.03296 40.09694 27998 ft 367 kts 87°
2026-04-30 19:53 56.03411 40.18844 28236 ft 369 kts 87°
2026-04-30 19:53 56.03467 40.23455 28406 ft 370 kts 87°
2026-04-30 19:53 56.03520 40.28016 28560 ft 372 kts 88°
2026-04-30 19:54 56.03573 40.32674 28446 ft 381 kts 88°
2026-04-30 19:54 56.03628 40.37531 28242 ft 400 kts 88°
2026-04-30 19:54 56.03683 40.42587 28223 ft 414 kts 88°
2026-04-30 19:54 56.03736 40.47831 28223 ft 427 kts 88°
2026-04-30 19:55 56.03789 40.53219 28220 ft 439 kts 88°
2026-04-30 19:55 56.03840 40.58751 28220 ft 450 kts 88°
2026-04-30 19:55 56.03890 40.64424 28221 ft 461 kts 88°
2026-04-30 19:55 56.03939 40.70220 28220 ft 470 kts 89°
2026-04-30 19:56 56.04026 40.81918 28217 ft 474 kts 89°
2026-04-30 19:56 56.04103 40.93751 28359 ft 477 kts 89°
2026-04-30 19:57 56.04137 40.99682 28692 ft 476 kts 89°
2026-04-30 19:57 56.04169 41.05623 29018 ft 476 kts 89°
2026-04-30 19:57 56.04197 41.11478 29330 ft 476 kts 89°
2026-04-30 19:57 56.04223 41.17411 29642 ft 476 kts 89°
2026-04-30 19:58 56.04246 41.23325 29959 ft 476 kts 89°
2026-04-30 19:58 56.04266 41.29248 30292 ft 475 kts 89°
2026-04-30 19:58 56.04283 41.35168 30564 ft 475 kts 89°
2026-04-30 19:58 56.04297 41.41088 30842 ft 476 kts 89°
2026-04-30 19:59 56.04309 41.47023 31090 ft 476 kts 89°
2026-04-30 19:59 56.04317 41.52947 31197 ft 476 kts 89°
2026-04-30 20:00 56.04320 41.81350 31200 ft 476 kts 90°
2026-04-30 20:01 56.04284 42.00560 31196 ft 476 kts 90°
2026-04-30 20:01 56.04248 42.12415 31193 ft 477 kts 90°
2026-04-30 20:02 56.04172 42.30202 31195 ft 476 kts 90°
2026-04-30 20:03 56.03918 42.47977 31191 ft 476 kts 98°
2026-04-30 20:03 56.03143 42.53714 31186 ft 476 kts 110°
2026-04-30 20:03 56.01785 42.59044 31187 ft 476 kts 121°
2026-04-30 20:04 55.98051 42.68808 31182 ft 476 kts 125°
2026-04-30 20:05 55.92373 42.83382 31186 ft 475 kts 125°
2026-04-30 20:05 55.86713 42.97821 31188 ft 476 kts 125°
2026-04-30 20:06 55.82909 43.07476 31183 ft 476 kts 126°
2026-04-30 20:06 55.79151 43.17174 31181 ft 476 kts 121°
2026-04-30 20:07 55.75865 43.27415 31171 ft 477 kts 120°
2026-04-30 20:08 55.70959 43.42686 31169 ft 476 kts 120°
2026-04-30 20:08 55.69307 43.47797 31170 ft 476 kts 120°
2026-04-30 20:09 55.60037 43.78469 31159 ft 478 kts 106°
2026-04-30 20:10 55.59277 43.86139 31161 ft 479 kts 94°
2026-04-30 20:11 55.58759 44.12990 31147 ft 479 kts 93°
2026-04-30 20:12 55.58119 44.41609 31142 ft 480 kts 93°
2026-04-30 20:13 55.57838 44.53410 31149 ft 480 kts 94°
2026-04-30 20:13 55.57545 44.65153 31138 ft 480 kts 94°
2026-04-30 20:14 55.57227 44.76951 31134 ft 479 kts 96°
2026-04-30 20:14 55.56641 44.82716 31140 ft 477 kts 108°
2026-04-30 20:14 55.55416 44.88140 31136 ft 474 kts 120°
2026-04-30 20:14 55.53609 44.92977 31138 ft 471 kts 131°
2026-04-30 20:15 55.51323 44.97102 31138 ft 469 kts 139°
2026-04-30 20:15 55.46479 45.04705 31135 ft 468 kts 140°
2026-04-30 20:16 55.41644 45.12390 31133 ft 468 kts 139°
2026-04-30 20:16 55.36846 45.20136 31135 ft 468 kts 139°
2026-04-30 20:17 55.32058 45.27873 31126 ft 467 kts 139°
2026-04-30 20:17 55.27271 45.35581 31127 ft 466 kts 139°
2026-04-30 20:18 55.22484 45.43261 31130 ft 466 kts 140°
2026-04-30 20:18 55.17706 45.50899 31008 ft 464 kts 140°
2026-04-30 20:18 55.15329 45.54690 30634 ft 457 kts 140°
2026-04-30 20:19 55.12995 45.58408 30036 ft 451 kts 140°
2026-04-30 20:19 55.10689 45.62077 29305 ft 446 kts 140°
2026-04-30 20:19 55.08407 45.65701 28569 ft 440 kts 141°
2026-04-30 20:19 55.06155 45.69272 27859 ft 435 kts 141°
2026-04-30 20:20 55.03931 45.72792 27186 ft 430 kts 142°
2026-04-30 20:20 55.01755 45.76232 26521 ft 424 kts 142°
2026-04-30 20:20 54.99589 45.79651 25870 ft 419 kts 143°
2026-04-30 20:20 54.97429 45.83056 25230 ft 414 kts 143°
2026-04-30 20:21 54.95304 45.86401 24601 ft 409 kts 143°
2026-04-30 20:21 54.93203 45.89703 24000 ft 404 kts 144°
2026-04-30 20:21 54.91128 45.92959 23325 ft 400 kts 144°
2026-04-30 20:21 54.89070 45.96177 22606 ft 395 kts 144°
2026-04-30 20:22 54.87034 45.99356 21906 ft 392 kts 144°
2026-04-30 20:22 54.85002 46.02518 21232 ft 395 kts 144°
2026-04-30 20:22 54.82934 46.05730 20558 ft 398 kts 143°
2026-04-30 20:22 54.80861 46.08949 19903 ft 400 kts 143°
2026-04-30 20:23 54.78781 46.12136 19258 ft 399 kts 145°
2026-04-30 20:23 54.76769 46.14900 18690 ft 400 kts 146°
2026-04-30 20:23 54.74615 46.17864 18033 ft 402 kts 146°
2026-04-30 20:23 54.72418 46.20905 17331 ft 404 kts 145°
2026-04-30 20:24 54.70215 46.23951 16644 ft 406 kts 145°
2026-04-30 20:24 54.68000 46.27006 15979 ft 408 kts 145°
2026-04-30 20:24 54.65780 46.30061 15476 ft 407 kts 144°
2026-04-30 20:24 54.63571 46.33095 15031 ft 405 kts 144°
2026-04-30 20:25 54.59197 46.39088 14155 ft 402 kts 144°
2026-04-30 20:25 54.57011 46.42077 13726 ft 400 kts 144°
2026-04-30 20:26 54.52717 46.47936 12904 ft 386 kts 144°
2026-04-30 20:26 54.50601 46.50814 12502 ft 390 kts 144°
2026-04-30 20:27 54.37620 46.68400 10573 ft 382 kts 143°
2026-04-30 20:28 54.33621 46.73795 9800 ft 356 kts 143°
2026-04-30 20:28 54.29847 46.78870 8960 ft 335 kts 143°
2026-04-30 20:29 54.26272 46.83694 8169 ft 319 kts 139°
2026-04-30 20:30 54.24084 46.93722 7170 ft 298 kts 98°
2026-04-30 20:30 54.23334 47.04073 5900 ft 285 kts 97°
2026-04-30 20:32 54.21997 47.22115 3458 ft 252 kts 96°
2026-04-30 20:32 54.21550 47.28027 2613 ft 247 kts 96°
2026-04-30 20:33 54.21331 47.30899 2341 ft 242 kts 95°
2026-04-30 20:33 54.20891 47.36695 2283 ft 245 kts 95°
2026-04-30 20:33 54.20671 47.39588 2289 ft 247 kts 95°
2026-04-30 20:34 54.20229 47.45353 2283 ft 245 kts 96°
2026-04-30 20:34 54.19803 47.50853 2278 ft 221 kts 96°
2026-04-30 20:35 54.19607 47.53360 2278 ft 205 kts 95°
2026-04-30 20:35 54.19427 47.55657 2285 ft 187 kts 95°
2026-04-30 20:35 54.19078 47.60211 2282 ft 193 kts 95°
2026-04-30 20:36 54.18901 47.62488 2282 ft 194 kts 95°
2026-04-30 20:36 54.18724 47.64764 2279 ft 193 kts 95°
2026-04-30 20:36 54.18367 47.69299 2281 ft 193 kts 95°
2026-04-30 20:37 54.18187 47.71579 2282 ft 193 kts 95°
2026-04-30 20:37 54.18007 47.73852 2282 ft 192 kts 95°
2026-04-30 20:37 54.17827 47.76122 2285 ft 192 kts 95°
2026-04-30 20:37 54.17649 47.78358 2284 ft 193 kts 95°
2026-04-30 20:38 54.17465 47.80657 2283 ft 193 kts 95°
2026-04-30 20:38 54.17287 47.82888 2284 ft 192 kts 95°
2026-04-30 20:38 54.17104 47.85166 2288 ft 193 kts 95°
2026-04-30 20:39 54.16737 47.89723 2291 ft 194 kts 95°
2026-04-30 20:39 54.16562 47.91990 2286 ft 192 kts 92°
2026-04-30 20:39 54.16651 47.94214 2242 ft 182 kts 79°
2026-04-30 20:40 54.17149 47.98285 2091 ft 175 kts 76°
2026-04-30 20:40 54.17421 48.00309 2091 ft 174 kts 76°
2026-04-30 20:40 54.17675 48.02201 2090 ft 155 kts 76°
2026-04-30 20:41 54.18104 48.05408 2095 ft 135 kts 76°
2026-04-30 20:41 54.18313 48.06957 2095 ft 134 kts 76°
2026-04-30 20:41 54.18521 48.08511 2098 ft 134 kts 75°
2026-04-30 20:41 54.18730 48.10068 2098 ft 134 kts 75°
2026-04-30 20:42 54.18944 48.11618 2096 ft 133 kts 73°
2026-04-30 20:42 54.19280 48.13087 2096 ft 133 kts 61°
2026-04-30 20:42 54.20523 48.15443 1825 ft 132 kts 39°
2026-04-30 20:43 54.21286 48.16364 1634 ft 136 kts 36°
2026-04-30 20:43 54.22079 48.17244 1435 ft 137 kts 34°
2026-04-30 20:43 54.22895 48.18125 1226 ft 139 kts 32°
2026-04-30 20:44 54.24528 48.19879 838 ft 141 kts 32°
2026-04-30 20:44 54.25354 48.20768 621 ft 140 kts 32°
2026-04-30 20:44 54.26984 48.22519 414 ft 120 kts 30°
2026-04-30 20:45 54.27483 48.23039 406 ft 0 kts 31°
2026-04-30 20:45 54.27547 48.23117 405 ft 26 kts 37°
2026-04-30 20:46 54.27667 48.23507 399 ft 0 kts 76°
2026-04-30 20:46 54.27670 48.23529 398 ft 5 kts 76°
2026-04-30 20:47 54.27686 48.23685 395 ft 2 kts 86°
2026-04-30 20:47 54.27681 48.23733 396 ft 6 kts 116°
2026-04-30 20:48 54.27633 48.23871 395 ft 7 kts 121°
2026-04-30 20:48 54.27609 48.23937 394 ft 6 kts 121°
2026-04-30 20:48 54.27581 48.23988 397 ft 5 kts 154°
2026-04-30 20:48 54.27545 48.23971 398 ft 7 kts 211°
2026-04-30 20:49 54.27496 48.23920 399 ft 10 kts 211°
2026-04-30 20:49 54.27455 48.23878 400 ft 0 kts 211°
2026-04-30 20:49 54.27445 48.23864 401 ft 3 kts 227°
2026-04-30 20:50 54.27444 48.23809 401 ft 2 kts 292°
2026-04-30 20:50 54.27448 48.23799 401 ft 0 kts 304°